Wind_Speed
36 35 36 36 36 35 35 36 38 39 41 43 44 45 46 47 47 47 46 47 46 47 47 47 47 47 48 49 50 50 50 49 48 47 46 44 43 42 39 37 35 34 33
38 37 36 36 38 40 41 42 44 46 48 48 48 49 49 49 51 53 54 54 55 54 54 53 53 53 53 53 52 52 52 52 51 50 49 47 46 45 42 40 37 36 35
40 38 37 38 39 42 44 47 50 53 54 54 54 54 54 54 55 56 56 56 57 58 58 58 58 58 59 59 58 56 55 54 54 53 52 51 49 46 44 42 40 38 37
43 42 40 41 43 46 49 51 53 55 56 55 55 55 57 60 62 62 62 61 61 61 62 62 62 60 59 60 61 62 62 60 59 57 56 54 52 50 47 44 42 40 38
47 44 43 45 48 51 52 54 55 57 57 57 58 60 62 64 65 66 67 68 69 70 70 70 71 70 67 64 62 62 63 64 64 63 62 59 57 54 52 49 45 43 40
45 45 46 48 52 53 53 55 57 58 60 62 64 66 67 68 69 71 72 73 74 76 77 78 78 78 77 74 72 69 66 65 65 64 65 66 64 60 57 54 51 48 45
45 47 48 51 55 56 57 59 61 63 65 67 68 70 70 72 73 74 76 77 78 77 78 78 78 78 79 80 79 78 76 73 70 67 65 65 66 65 62 59 56 53 49
48 53 55 57 58 59 61 64 66 68 69 70 73 76 77 76 76 77 77 76 74 72 70 70 71 72 74 72 72 76 79 79 78 76 72 69 66 65 65 62 59 57 53
58 61 59 60 62 63 66 69 72 74 74 75 78 81 83 82 79 76 73 69 66 63 62 62 63 64 64 64 63 63 69 73 75 77 77 76 72 68 64 62 60 59 56
67 67 69 71 73 74 75 77 79 80 81 82 82 84 84 81 76 71 63 60 59 59 60 61 61 62 61 60 58 57 59 62 64 68 73 77 77 73 69 65 62 61 59
70 73 76 79 81 83 85 86 86 86 86 85 84 80 75 68 62 59 54 51 52 53 54 56 58 59 59 58 56 56 56 57 57 58 62 67 73 75 72 70 67 63 61
72 76 80 83 86 88 90 90 89 86 83 79 72 65 58 53 50 49 48 46 45 45 45 47 49 51 53 55 55 56 56 56 57 58 60 61 63 68 71 71 69 66 64
76 79 82 83 84 85 85 82 77 72 66 59 53 49 48 47 45 44 43 43 42 40 40 39 40 42 45 48 51 54 54 55 56 58 59 59 59 60 64 69 71 69 67
78 78 77 74 72 68 65 59 53 48 45 43 43 43 43 42 41 41 41 41 40 38 36 34 34 36 38 41 43 44 44 45 46 49 52 52 54 56 59 63 69 71 70
70 66 60 56 52 49 46 42 39 38 38 38 39 39 38 38 37 38 39 39 37 34 30 28 29 30 32 32 32 32 33 35 37 40 42 43 44 47 52 56 62 68 71
50 46 44 43 42 41 39 37 36 36 37 37 38 38 37 37 37 37 38 36 33 30 28 25 25 27 28 27 26 26 26 27 29 29 32 33 35 38 41 45 51 59 67
37 36 36 36 35 34 35 35 34 34 33 33 33 32 32 33 34 35 34 31 29 28 25 22 24 25 24 21 20 18 19 19 21 22 24 26 27 28 31 35 39 45 56
35 35 34 34 34 33 32 31 30 29 28 28 29 28 28 28 28 27 26 24 23 23 22 19 21 22 20 16 13 11 12 13 15 16 18 18 19 22 23 26 30 35 43
39 38 38 37 37 36 34 34 33 32 31 30 28 28 27 26 24 22 20 19 19 19 19 17 18 20 19 16 13 11 11 12 12 13 14 15 16 17 18 19 20 25 32
41 41 41 41 40 39 39 38 37 36 35 33 30 28 27 24 21 19 18 18 19 18 18 16 17 19 19 17 14 12 12 12 11 10 11 13 15 14 17 18 19 21 26
43 44 44 44 42 41 40 39 38 37 36 33 32 30 27 24 21 19 18 18 19 19 19 18 17 18 17 17 15 14 13 12 10 9 11 13 14 7 3 11 16 20 27
44 46 45 43 41 38 38 37 36 35 34 31 30 29 27 23 20 19 18 18 18 17 16 16 15 15 14 15 16 14 13 11 8 8 9 10 12 8 7 12 16 21 27
45 46 43 38 35 34 34 34 34 32 31 30 28 28 26 22 19 18 17 16 14 13 12 11 10 10 10 10 11 11 11 9 5 6 6 6 7 7 13 17 21 26 30
45 44 41 37 35 34 34 33 32 31 30 29 27 26 25 22 19 17 15 13 12 12 12 10 9 9 10 9 10 11 10 6 2 2 3 6 7 13 19 21 24 27 30
43 42 39 37 37 36 34 32 30 28 27 27 26 25 23 21 19 16 13 11 11 13 12 10 10 11 11 11 13 13 10 7 4 2 5 9 12 18 25 28 28 27 28
41 39 37 37 37 37 34 32 28 25 24 24 24 24 22 19 17 14 12 10 11 12 10 8 10 14 13 14 16 15 12 8 5 4 7 11 16 21 25 28 31 32 30
Wind_Direction
293 296 299 300 299 297 295 293 292 289 288 288 287 285 283 283 282 281 280 278 277 276 275 274 272 271 271 271 271 270 269 268 267 267 267 267 267 266 264 263 262 262 261
292 294 295 296 295 295 294 293 292 291 291 291 290 290 288 286 285 285 285 284 281 278 276 275 274 273 271 269 270 270 271 271 271 270 269 267 266 265 263 261 258 257 256
291 289 289 289 290 291 292 294 295 295 295 295 295 296 295 293 292 292 292 291 290 287 284 280 277 275 273 271 269 268 268 268 269 270 269 268 266 264 262 259 256 254 252
288 286 286 288 291 294 294 294 294 294 293 293 294 295 295 296 296 296 294 293 291 290 288 285 282 278 274 271 270 268 266 265 264 265 265 265 265 264 262 259 256 252 250
283 281 283 287 291 294 294 293 294 294 294 293 292 292 293 293 292 292 291 290 289 288 286 284 283 281 277 273 270 268 267 265 264 262 262 261 260 261 260 259 258 255 251
281 276 279 284 289 292 292 292 292 292 291 291 291 291 291 291 290 290 289 289 288 287 285 284 282 280 279 275 271 268 266 265 264 262 261 258 256 256 257 257 256 255 253
282 283 286 291 293 292 291 290 290 290 290 291 291 290 290 290 291 291 290 289 288 287 286 284 281 279 277 275 273 270 266 263 261 259 258 257 256 253 252 253 253 253 252
291 295 294 293 291 290 289 290 290 289 289 289 290 291 291 290 291 290 289 288 287 286 285 283 281 279 277 275 272 270 267 263 260 258 256 255 256 254 251 250 250 250 249
297 299 296 294 292 292 292 292 291 291 291 290 292 294 294 294 291 288 286 284 282 281 281 280 279 278 277 274 271 269 266 263 261 258 255 254 253 252 250 247 245 246 246
298 298 298 298 298 298 297 296 295 295 294 294 293 294 294 293 292 287 284 281 280 279 279 278 276 274 273 272 271 269 265 261 259 256 254 252 250 249 247 245 242 241 241
298 298 298 298 298 298 297 295 294 293 293 293 293 293 292 290 288 287 285 282 282 282 281 279 275 272 270 268 267 266 263 260 257 255 253 251 248 246 244 243 241 239 236
296 296 296 296 296 296 295 293 292 292 292 292 292 291 289 287 286 285 286 286 286 286 285 282 279 274 269 266 264 263 261 259 258 257 257 256 253 248 244 241 239 236 234
294 294 294 295 295 295 294 293 293 292 292 292 291 289 288 287 286 285 286 286 287 288 289 288 283 277 271 267 265 263 261 260 258 258 259 259 257 253 248 242 238 235 233
296 295 295 296 296 297 298 297 296 295 293 292 292 291 290 288 286 285 286 287 287 286 287 288 284 279 276 272 268 266 263 260 257 257 258 259 258 255 250 245 239 234 231
298 297 297 298 300 302 303 302 300 298 296 294 293 292 290 288 286 285 286 287 287 286 284 284 282 280 280 277 273 269 265 263 263 263 260 260 258 255 252 248 241 234 229
304 302 300 300 301 302 303 303 302 300 298 296 294 292 290 287 286 285 285 285 286 287 286 280 277 279 282 283 280 273 267 267 267 263 260 257 256 254 253 249 243 235 229
314 311 308 306 306 305 304 303 304 303 303 302 301 299 296 292 289 286 283 280 281 286 288 280 272 275 282 284 282 274 269 266 266 263 259 256 256 258 256 251 245 237 229
322 318 314 311 309 306 303 302 302 302 304 306 308 307 304 300 295 289 283 279 280 285 290 281 269 270 275 280 282 276 275 273 271 266 262 265 271 268 259 249 242 237 230
323 321 316 312 307 302 297 295 294 294 295 298 302 306 305 304 301 294 285 278 280 287 291 282 269 267 268 269 269 269 271 276 276 273 277 287 286 274 257 243 231 225 222
326 323 318 313 307 302 297 294 292 290 290 290 292 296 300 300 298 292 284 278 279 283 289 286 272 267 264 262 263 266 272 275 277 285 301 307 304 282 254 238 218 207 201
329 325 320 314 309 305 300 295 291 290 287 286 286 287 291 294 292 288 284 280 281 283 284 282 274 266 263 258 261 264 264 262 269 289 306 321 333 337 222 198 188 187 185
332 329 324 319 315 311 306 301 294 288 286 284 282 282 283 286 287 285 284 285 286 286 285 281 270 260 259 256 258 252 245 242 258 295 315 338 358 28 108 143 149 156 162
333 331 326 323 321 320 315 310 303 293 287 283 280 278 278 277 280 282 281 287 290 291 291 283 260 243 242 245 239 224 214 216 257 305 335 10 27 78 126 127 132 142 147
334 332 327 323 322 323 321 316 310 300 290 284 279 277 275 272 273 276 274 278 283 290 292 278 243 220 218 222 200 188 188 196 227 323 34 69 96 127 139 137 136 133 137
333 332 328 324 324 323 320 317 312 305 297 288 282 277 273 267 264 269 268 270 280 290 291 272 231 206 201 198 179 170 164 159 151 113 84 105 125 139 146 149 149 147 145
331 329 326 325 325 324 323 320 314 304 298 293 287 280 271 262 256 260 259 266 285 294 284 243 203 183 178 173 167 164 160 152 144 126 115 126 135 143 149 155 161 164 166
Height
5837 5835 5833 5831 5830 5829 5828 5826 5824 5822 5821 5820 5818 5817 5816 5814 5813 5812 5812 5812 5812 5811 5809 5809 5808 5808 5808 5807 5808 5808 5809 5810 5810 5811 5812 5813 5815 5817 5819 5820 5821 5823 5825
5831 5829 5826 5824 5822 5820 5818 5817 5815 5812 5810 5808 5807 5805 5804 5803 5802 5800 5799 5799 5799 5799 5798 5797 5797 5796 5796 5796 5796 5796 5797 5798 5799 5799 5800 5802 5804 5807 5809 5810 5812 5814 5817
5824 5822 5820 5818 5816 5814 5811 5807 5804 5801 5798 5795 5792 5790 5788 5787 5786 5784 5783 5783 5782 5781 5782 5782 5783 5782 5782 5782 5782 5783 5784 5785 5786 5787 5788 5790 5791 5794 5797 5800 5802 5805 5807
5816 5814 5811 5809 5807 5804 5801 5797 5794 5790 5787 5783 5780 5777 5774 5772 5770 5767 5766 5765 5764 5764 5762 5761 5762 5764 5765 5766 5767 5767 5769 5770 5772 5774 5776 5778 5779 5781 5784 5788 5792 5795 5798
5807 5804 5802 5799 5797 5793 5789 5785 5780 5777 5774 5770 5767 5765 5762 5759 5757 5754 5751 5748 5746 5745 5743 5741 5740 5740 5743 5746 5748 5749 5751 5754 5756 5758 5761 5764 5766 5769 5771 5775 5779 5783 5787
5795 5793 5791 5789 5786 5783 5778 5773 5769 5765 5761 5757 5754 5752 5749 5746 5742 5739 5736 5732 5729 5725 5722 5720 5719 5718 5719 5721 5724 5728 5731 5734 5737 5740 5743 5746 5751 5755 5758 5761 5765 5770 5775
5786 5784 5781 5778 5774 5771 5766 5760 5756 5752 5748 5744 5739 5735 5733 5730 5726 5722 5717 5713 5709 5705 5701 5699 5697 5697 5697 5698 5699 5703 5708 5712 5716 5720 5723 5727 5732 5738 5742 5747 5751 5756 5762
5775 5773 5771 5767 5762 5759 5753 5747 5741 5736 5733 5729 5723 5716 5713 5713 5710 5704 5699 5694 5690 5685 5682 5678 5675 5674 5674 5676 5677 5678 5681 5686 5691 5697 5703 5708 5713 5717 5724 5730 5736 5741 5747
5762 5759 5755 5752 5748 5744 5739 5733 5726 5719 5715 5711 5705 5696 5690 5687 5685 5683 5679 5675 5670 5667 5664 5660 5657 5655 5655 5655 5657 5657 5657 5659 5665 5671 5678 5685 5692 5698 5704 5712 5719 5725 5732
5749 5744 5738 5732 5728 5724 5719 5713 5707 5700 5693 5689 5685 5678 5670 5663 5658 5656 5660 5655 5651 5649 5646 5643 5641 5639 5638 5637 5638 5639 5637 5637 5641 5645 5652 5660 5668 5677 5684 5692 5700 5708 5715
5736 5728 5720 5714 5709 5703 5697 5691 5685 5680 5673 5667 5662 5657 5651 5645 5639 5635 5639 5639 5635 5633 5629 5626 5623 5621 5620 5619 5620 5620 5619 5621 5623 5626 5629 5635 5643 5653 5662 5671 5680 5689 5698
5723 5714 5705 5698 5691 5683 5675 5667 5661 5656 5650 5645 5640 5635 5631 5628 5625 5622 5621 5621 5620 5618 5614 5610 5607 5605 5603 5602 5601 5602 5603 5606 5609 5610 5612 5615 5620 5628 5639 5649 5659 5670 5679
5708 5699 5690 5682 5673 5663 5653 5645 5639 5634 5629 5626 5622 5619 5616 5613 5611 5609 5608 5607 5605 5604 5601 5597 5593 5590 5588 5586 5585 5585 5587 5589 5591 5593 5595 5599 5602 5608 5616 5625 5637 5648 5660
5688 5679 5670 5662 5653 5644 5635 5627 5621 5617 5614 5612 5609 5606 5603 5601 5599 5597 5596 5594 5593 5592 5590 5587 5582 5579 5576 5573 5572 5571 5572 5574 5575 5578 5580 5583 5586 5590 5595 5602 5612 5625 5639
5666 5659 5652 5645 5638 5630 5623 5617 5612 5608 5604 5601 5598 5595 5593 5590 5588 5586 5585 5583 5581 5580 5580 5578 5574 5570 5566 5563 5562 5561 5561 5562 5564 5566 5568 5570 5572 5574 5577 5582 5590 5602 5617
5649 5644 5638 5633 5627 5621 5615 5609 5604 5600 5596 5592 5589 5586 5583 5580 5578 5576 5574 5572 5571 5570 5569 5569 5566 5562 5559 5556 5555 5553 5552 5554 5555 5556 5557 5559 5560 5562 5564 5568 5573 5582 5596
5641 5635 5629 5624 5618 5613 5608 5602 5597 5593 5589 5585 5580 5577 5574 5571 5568 5566 5564 5563 5563 5561 5560 5561 5558 5556 5553 5551 5550 5548 5548 5548 5549 5550 5550 5551 5552 5553 5554 5556 5560 5567 5578
5636 5630 5623 5617 5611 5606 5600 5595 5591 5586 5582 5578 5574 5570 5566 5563 5560 5557 5556 5556 5556 5555 5553 5553 5551 5549 5548 5547 5546 5546 5545 5545 5545 5545 5545 5545 5546 5545 5545 5547 5550 5556 5565
5631 5624 5617 5611 5605 5599 5594 5588 5584 5580 5576 5572 5568 5564 5560 5557 5554 5551 5550 5550 5550 5549 5547 5546 5546 5544 5544 5543 5543 5543 5543 5543 5543 5542 5542 5541 5540 5539 5538 5540 5543 5548 5555
5626 5618 5611 5604 5597 5591 5585 5580 5575 5571 5567 5564 5561 5558 5555 5552 5549 5547 5546 5545 5544 5543 5542 5541 5540 5540 5539 5539 5540 5541 5541 5541 5541 5540 5539 5538 5535 5532 5531 5533 5538 5543 5549
5620 5612 5604 5596 5588 5582 5575 5570 5566 5562 5558 5556 5553 5551 5548 5546 5544 5542 5540 5539 5539 5538 5537 5536 5536 5535 5535 5536 5537 5538 5538 5539 5540 5539 5538 5535 5531 5527 5526 5528 5533 5540 5548
5612 5603 5594 5586 5579 5572 5565 5560 5555 5552 5549 5546 5544 5542 5541 5540 5538 5536 5534 5534 5533 5532 5531 5531 5531 5531 5531 5532 5533 5535 5536 5538 5539 5539 5537 5535 5532 5529 5529 5531 5535 5542 5551
5605 5595 5586 5577 5570 5563 5557 5551 5546 5542 5539 5537 5535 5534 5533 5532 5531 5530 5529 5528 5528 5527 5527 5526 5527 5528 5529 5530 5531 5533 5535 5538 5539 5539 5538 5537 5536 5534 5536 5538 5542 5548 5556
5598 5588 5578 5570 5563 5556 5550 5543 5538 5533 5530 5528 5526 5525 5525 5525 5525 5524 5524 5524 5524 5524 5523 5523 5524 5525 5527 5529 5530 5533 5536 5538 5540 5540 5541 5541 5540 5541 5544 5547 5551 5557 5563
5591 5581 5572 5564 5556 5549 5543 5536 5531 5526 5523 5520 5518 5517 5517 5518 5518 5519 5520 5520 5521 5520 5519 5519 5521 5523 5525 5528 5530 5534 5537 5539 5541 5542 5543 5544 5545 5548 5552 5556 5560 5566 5573
5584 5575 5566 5558 5550 5542 5535 5529 5524 5520 5516 5513 5511 5509 5509 5511 5513 5514 5516 5517 5517 5516 5515 5515 5518 5522 5525 5528 5531 5534 5538 5540 5542 5544 5545 5547 5550 5554 5559 5563 5569 5575 5582